Location: Newark
(25.4800°N, 85.7200°E)
Time: 16:13:09
(UTC+00:00)

Transit 4A - Pass Details

Date: 29 August 2019
Orbit: 867 x 978 km, 66.8° (Epoch: 23 October)

Event Time Altitude Azimuth Distance (km) Brightness Sun altitude
Rises 11:57:12 0° 259° (W) 3,660 12.7 8.7°
Reaches altitude 10° 12:03:05 10° 302° (WNW) 2,724 11.8 7.4°
Maximum altitude 12:03:43 10° 308° (NW) 2,714 11.5 7.2°
Drops below altitude 10° 12:04:22 10° 313° (NW) 2,724 11.4 7.1°
Sets 12:10:19 0° 356° (N) 3,666 11.2 5.8°
